Location: ??
(35.4627°N, 139.3695°E)
Time: 15:54:35
(UTC+00:00)

ERS-2 - Pass Details

Date: 25 November 2020
Orbit: 492 x 498 km, 98.6° (Epoch: 20 January)

Event Time Altitude Azimuth Distance (km) Brightness Sun altitude
Rises 19:50:06 0° 174° (S) 2,557 6.0 -19.8°
Reaches altitude 10° 19:52:10 10° 178° (S) 1,680 5.0 -19.4°
Maximum altitude 19:55:44 59° 258° (WSW) 573 2.0 -18.7°
Enters shadow 19:56:26 48° 306° (NW) 651 2.2 -18.5°
